| time (UTC) | temp F | wind direction | speed knots | gust knots | rain 1hr in | rain 24hr in | rain mn in | humidity % | barometer mb |
| 20260903111507 | 63 | 334 | 2.6 | 2.6 | 0.00 | 0.00 | 0.00 | 90 | 1012.6 |
| 20260903111008 | 63 | 288 | 0.0 | 2.6 | 0.00 | 0.00 | 0.00 | 90 | 1012.6 |
| 20260903110509 | 63 | 243 | 0.0 | 0.0 | 0.00 | 0.00 | 0.00 | 90 | 1012.7 |
| 20260903110007 | 63 | 251 | 0.0 | 2.6 | 0.00 | 0.00 | 0.00 | 90 | 1012.7 |
| 20260903105507 | 63 | 299 | 0.0 | 2.6 | 0.00 | 0.00 | 0.00 | 89 | 1012.8 |
| 20260903105008 | 63 | 262 | 0.0 | 1.7 | 0.00 | 0.00 | 0.00 | 89 | 1012.8 |
| 20260903104508 | 63 | 279 | 0.0 | 2.6 | 0.00 | 0.00 | 0.00 | 89 | 1012.7 |
| 20260903104006 | 63 | 283 | 0.0 | 4.3 | 0.00 | 0.00 | 0.00 | 89 | 1012.8 |
| 20260903103507 | 63 | 305 | 0.9 | 4.3 | 0.00 | 0.00 | 0.00 | 89 | 1012.7 |
| 20260903103007 | 63 | 284 | 0.0 | 2.6 | 0.00 | 0.00 | 0.00 | 89 | 1012.7 |
| 20260903102507 | 63 | 299 | 1.7 | 4.3 | 0.00 | 0.00 | 0.00 | 88 | 1012.7 |
| 20260903102007 | 63 | 343 | 1.7 | 4.3 | 0.00 | 0.00 | 0.00 | 88 | 1012.8 |
| 20260903101506 | 63 | 14 | 0.9 | 1.7 | 0.00 | 0.00 | 0.00 | 88 | 1012.9 |
| 20260903101230 | 63 | 328 | 0.0 | 1.7 | 0.00 | 0.00 | 0.00 | 88 | 1012.8 |
| 20260903100505 | 63 | 315 | 0.0 | 0.0 | 0.00 | 0.00 | 0.00 | 88 | 1012.8 |
| 20260903095935 | 64 | 309 | 0.0 | 2.6 | 0.00 | 0.00 | 0.00 | 88 | 1012.9 |
| 20260903095657 | 64 | 342 | 0.0 | 2.6 | 0.00 | 0.00 | 0.00 | 88 | 1012.9 |
| 20260903094934 | 64 | 34 | 0.9 | 2.6 | 0.00 | 0.00 | 0.00 | 88 | 1012.9 |
| 20260903094434 | 64 | 3 | 1.7 | 4.3 | 0.00 | 0.00 | 0.00 | 88 | 1013.0 |
| 20260903093934 | 64 | 6 | 1.7 | 4.3 | 0.00 | 0.00 | 0.00 | 88 | 1012.9 |
| 20260903093434 | 64 | 357 | 2.6 | 4.3 | 0.00 | 0.00 | 0.00 | 88 | 1013.1 |
| 20260903092933 | 64 | 351 | 3.5 | 4.3 | 0.00 | 0.00 | 0.00 | 88 | 1013.1 |
| 20260903092435 | 64 | 286 | 0.9 | 1.7 | 0.00 | 0.00 | 0.00 | 88 | 1013.1 |
| 20260903091934 | 63 | 342 | 1.7 | 1.7 | 0.00 | 0.00 | 0.00 | 88 | 1013.1 |
| 20260903091433 | 63 | 317 | 0.0 | 0.0 | 0.00 | 0.00 | 0.00 | 88 | 1013.3 |
| 20260903090933 | 64 | 300 | 0.0 | 0.0 | 0.00 | 0.00 | 0.00 | 88 | 1013.3 |
| 20260903090433 | 64 | 265 | 0.0 | 0.0 | 0.00 | 0.00 | 0.00 | 89 | 1013.3 |
| 20260903085934 | 64 | 276 | 0.0 | 2.6 | 0.00 | 0.00 | 0.00 | 89 | 1013.3 |
| 20260903085659 | 64 | 275 | 0.0 | 2.6 | 0.00 | 0.00 | 0.00 | 88 | 1013.3 |
| 20260903084932 | 64 | 336 | 0.9 | 2.6 | 0.00 | 0.00 | 0.00 | 88 | 1013.4 |
| 20260903084434 | 64 | 250 | 0.0 | 0.0 | 0.00 | 0.00 | 0.00 | 88 | 1013.4 |
| 20260903083934 | 64 | 250 | 0.0 | 0.9 | 0.00 | 0.00 | 0.00 | 88 | 1013.5 |
| 20260903083432 | 65 | 249 | 0.0 | 2.6 | 0.00 | 0.00 | 0.00 | 87 | 1013.5 |
| 20260903082932 | 65 | 277 | 0.9 | 2.6 | 0.00 | 0.00 | 0.00 | 87 | 1013.5 |
| 20260903082433 | 65 | 307 | 1.7 | 2.6 | 0.00 | 0.00 | 0.00 | 87 | 1013.5 |
| 20260903081933 | 65 | 356 | 0.9 | 2.6 | 0.00 | 0.00 | 0.00 | 86 | 1013.6 |
| 20260903081432 | 65 | 276 | 0.0 | 0.0 | 0.00 | 0.00 | 0.00 | 85 | 1013.7 |
| 20260903081150 | 65 | 215 | 0.0 | 0.0 | 0.00 | 0.00 | 0.00 | 85 | 1013.6 |
| 20260903080433 | 65 | 236 | 0.0 | 0.0 | 0.00 | 0.00 | 0.00 | 86 | 1013.7 |
| 20260903080200 | 65 | 223 | 0.0 | 0.0 | 0.00 | 0.00 | 0.00 | 86 | 1013.7 |
| 20260903075431 | 65 | 256 | 0.0 | 0.0 | 0.00 | 0.00 | 0.00 | 86 | 1013.7 |
| 20260903074931 | 65 | 238 | 0.0 | 0.9 | 0.00 | 0.00 | 0.00 | 87 | 1013.6 |
| 20260903074432 | 65 | 262 | 0.0 | 4.3 | 0.00 | 0.00 | 0.00 | 86 | 1013.7 |
| 20260903073933 | 66 | 257 | 0.0 | 4.3 | 0.00 | 0.00 | 0.00 | 86 | 1013.8 |
| 20260903073431 | 66 | 347 | 2.6 | 4.3 | 0.00 | 0.00 | 0.00 | 86 | 1013.8 |
| 20260903072931 | 66 | 301 | 1.7 | 2.6 | 0.00 | 0.00 | 0.00 | 85 | 1013.8 |
| 20260903072431 | 66 | 323 | 0.0 | 1.7 | 0.00 | 0.00 | 0.00 | 85 | 1013.7 |
| 20260903071931 | 66 | 340 | 0.9 | 1.7 | 0.00 | 0.00 | 0.00 | 85 | 1013.6 |
| 20260903071430 | 66 | 263 | 0.0 | 0.0 | 0.00 | 0.00 | 0.00 | 85 | 1013.7 |
| 20260903070931 | 66 | 220 | 0.0 | 0.0 | 0.00 | 0.00 | 0.00 | 85 | 1013.6 |
| 20260903070648 | 66 | 291 | 0.0 | 0.0 | 0.00 | 0.00 | 0.00 | 85 | 1013.7 |
| 20260903070151 | 66 | 286 | 0.0 | 0.0 | 0.00 | 0.00 | 0.00 | 85 | 1013.7 |
| 20260903065430 | 66 | 291 | 0.0 | 0.0 | 0.00 | 0.00 | 0.00 | 84 | 1013.7 |
| 20260903065151 | 67 | 277 | 0.0 | 0.0 | 0.00 | 0.00 | 0.00 | 84 | 1013.8 |
| 20260903064430 | 67 | 274 | 0.0 | 0.0 | 0.00 | 0.00 | 0.00 | 84 | 1013.8 |
| 20260903063932 | 67 | 247 | 0.0 | 0.0 | 0.00 | 0.00 | 0.00 | 84 | 1013.7 |
| 20260903063430 | 67 | 250 | 0.0 | 0.0 | 0.00 | 0.00 | 0.00 | 84 | 1013.8 |
| 20260903062930 | 67 | 269 | 0.0 | 0.0 | 0.00 | 0.00 | 0.00 | 83 | 1013.7 |
| 20260903062658 | 67 | 259 | 0.0 | 0.9 | 0.00 | 0.00 | 0.00 | 83 | 1013.7 |
| 20260903061930 | 67 | 306 | 0.0 | 1.7 | 0.00 | 0.00 | 0.00 | 83 | 1013.7 |
| 20260903061430 | 67 | 296 | 0.9 | 1.7 | 0.00 | 0.00 | 0.00 | 83 | 1013.7 |
| 20260903061152 | 67 | 341 | 0.0 | 1.7 | 0.00 | 0.00 | 0.00 | 83 | 1013.8 |
| 20260903060430 | 67 | 301 | 0.0 | 1.7 | 0.00 | 0.00 | 0.00 | 83 | 1013.7 |
| 20260903055930 | 67 | 293 | 0.9 | 2.6 | 0.00 | 0.00 | 0.00 | 83 | 1013.8 |
| 20260903055430 | 67 | 270 | 1.7 | 2.6 | 0.00 | 0.00 | 0.00 | 83 | 1013.8 |
| 20260903054646 | 67 | 294 | 1.7 | 1.7 | 0.00 | 0.00 | 0.00 | 83 | 1013.9 |
| 20260903053930 | 67 | 290 | 0.0 | 1.7 | 0.00 | 0.00 | 0.00 | 83 | 1013.9 |
| 20260903053656 | 67 | 268 | 0.9 | 2.6 | 0.00 | 0.00 | 0.00 | 83 | 1014.0 |
| 20260903052928 | 67 | 295 | 2.6 | 2.6 | 0.00 | 0.00 | 0.00 | 83 | 1014.0 |
| 20260903052645 | 67 | 278 | 1.7 | 2.6 | 0.00 | 0.00 | 0.00 | 83 | 1013.9 |
| 20260903051929 | 67 | 268 | 0.9 | 2.6 | 0.00 | 0.00 | 0.00 | 83 | 1014.0 |
| 20260903051429 | 67 | 275 | 0.9 | 1.7 | 0.00 | 0.00 | 0.00 | 83 | 1013.9 |
| 20260903050927 | 67 | 270 | 0.9 | 1.7 | 0.00 | 0.00 | 0.00 | 83 | 1014.0 |
| 20260903050427 | 67 | 273 | 1.7 | 1.7 | 0.00 | 0.00 | 0.00 | 84 | 1014.1 |
| 20260903050156 | 67 | 252 | 0.0 | 1.7 | 0.00 | 0.00 | 0.00 | 84 | 1014.0 |
| 20260903045429 | 67 | 265 | 0.0 | 1.7 | 0.00 | 0.00 | 0.00 | 83 | 1014.1 |
| 20260903044928 | 67 | 245 | 1.7 | 1.7 | 0.00 | 0.00 | 0.00 | 83 | 1014.0 |
| 20260903044653 | 68 | 250 | 0.0 | 1.7 | 0.00 | 0.00 | 0.00 | 83 | 1014.0 |
| 20260903044148 | 68 | 245 | 0.9 | 1.7 | 0.00 | 0.00 | 0.00 | 83 | 1014.0 |
| 20260903043428 | 68 | 243 | 0.9 | 1.7 | 0.00 | 0.00 | 0.00 | 82 | 1013.9 |
| 20260903042927 | 68 | 260 | 0.0 | 1.7 | 0.00 | 0.00 | 0.00 | 82 | 1013.9 |
| 20260903042427 | 68 | 269 | 0.0 | 4.3 | 0.00 | 0.00 | 0.00 | 82 | 1013.9 |
| 20260903041928 | 68 | 264 | 0.0 | 4.3 | 0.00 | 0.00 | 0.00 | 82 | 1013.9 |
| 20260903041648 | 68 | 302 | 2.6 | 4.3 | 0.00 | 0.00 | 0.00 | 82 | 1013.9 |
| 20260903040927 | 68 | 267 | 0.0 | 5.2 | 0.00 | 0.00 | 0.00 | 82 | 1013.9 |
| 20260903040427 | 68 | 321 | 3.5 | 5.2 | 0.00 | 0.00 | 0.00 | 82 | 1013.8 |
| 20260903035928 | 68 | 284 | 1.7 | 4.3 | 0.00 | 0.00 | 0.00 | 82 | 1013.7 |
| 20260903035653 | 68 | 299 | 3.5 | 6.1 | 0.00 | 0.00 | 0.00 | 82 | 1013.7 |
| 20260903034926 | 68 | 284 | 3.5 | 7.0 | 0.00 | 0.00 | 0.00 | 82 | 1013.6 |
| 20260903034647 | 68 | 294 | 4.3 | 7.0 | 0.00 | 0.00 | 0.00 | 82 | 1013.6 |
| 20260903033925 | 67 | 298 | 4.3 | 7.8 | 0.00 | 0.00 | 0.00 | 82 | 1013.5 |
| 20260903033428 | 67 | 16 | 2.6 | 7.8 | 0.00 | 0.00 | 0.00 | 82 | 1013.5 |
| 20260903032929 | 67 | 344 | 5.2 | 7.0 | 0.00 | 0.00 | 0.00 | 82 | 1013.4 |
| 20260903032425 | 67 | 324 | 4.3 | 7.0 | 0.00 | 0.00 | 0.00 | 82 | 1013.4 |
| 20260903031925 | 68 | 312 | 4.3 | 7.0 | 0.00 | 0.00 | 0.00 | 82 | 1013.5 |
| 20260903031427 | 68 | 293 | 3.5 | 7.0 | 0.00 | 0.00 | 0.00 | 83 | 1013.3 |
| 20260903030926 | 68 | 321 | 3.5 | 7.0 | 0.00 | 0.00 | 0.00 | 82 | 1013.2 |
| 20260903030425 | 68 | 331 | 3.5 | 7.0 | 0.00 | 0.00 | 0.00 | 83 | 1013.3 |
| 20260903025926 | 68 | 275 | 4.3 | 7.0 | 0.00 | 0.00 | 0.00 | 83 | 1013.2 |
| 20260903025652 | 68 | 301 | 2.6 | 7.8 | 0.00 | 0.00 | 0.00 | 83 | 1013.2 |
| 20260903024926 | 68 | 299 | 4.3 | 7.8 | 0.00 | 0.00 | 0.00 | 82 | 1013.2 |
| 20260903024424 | 68 | 348 | 4.3 | 7.8 | 0.00 | 0.00 | 0.00 | 82 | 1013.1 |
| 20260903023925 | 68 | 337 | 5.2 | 11.3 | 0.00 | 0.00 | 0.00 | 83 | 1013.0 |
| 20260903023426 | 68 | 324 | 6.1 | 11.3 | 0.00 | 0.00 | 0.00 | 82 | 1013.0 |
| 20260903022425 | 68 | 286 | 3.5 | 7.8 | 0.00 | 0.00 | 0.00 | 83 | 1013.0 |
| 20260903021924 | 69 | 315 | 3.5 | 6.1 | 0.00 | 0.00 | 0.00 | 83 | 1013.1 |
| 20260903021427 | 69 | 278 | 5.2 | 7.0 | 0.00 | 0.00 | 0.00 | 83 | 1013.1 |
| 20260903020925 | 69 | 298 | 2.6 | 7.0 | 0.00 | 0.00 | 0.00 | 83 | 1013.2 |
| 20260903020423 | 69 | 289 | 2.6 | 7.0 | 0.00 | 0.00 | 0.00 | 82 | 1013.1 |
| 20260903015924 | 69 | 267 | 2.6 | 7.0 | 0.00 | 0.00 | 0.00 | 82 | 1013.1 |
| 20260903015424 | 70 | 270 | 3.5 | 7.0 | 0.00 | 0.00 | 0.00 | 81 | 1013.1 |
| 20260903014925 | 70 | 328 | 2.6 | 7.0 | 0.00 | 0.00 | 0.00 | 80 | 1013.1 |
| 20260903014424 | 70 | 271 | 2.6 | 7.0 | 0.00 | 0.00 | 0.00 | 79 | 1013.0 |
| 20260903014141 | 70 | 305 | 1.7 | 7.0 | 0.00 | 0.00 | 0.00 | 78 | 1013.0 |
| 20260903013423 | 71 | 257 | 1.7 | 7.0 | 0.00 | 0.00 | 0.00 | 77 | 1013.0 |
| 20260903012924 | 71 | 321 | 1.7 | 7.8 | 0.00 | 0.00 | 0.00 | 77 | 1012.9 |
| 20260903012423 | 71 | 6 | 3.5 | 8.7 | 0.00 | 0.00 | 0.00 | 76 | 1013.0 |
| 20260903011923 | 71 | 264 | 2.6 | 8.7 | 0.00 | 0.00 | 0.00 | 76 | 1012.9 |
| 20260903011422 | 72 | 291 | 0.9 | 6.1 | 0.00 | 0.00 | 0.00 | 74 | 1012.8 |
| 20260903010924 | 72 | 349 | 4.3 | 6.1 | 0.00 | 0.00 | 0.00 | 73 | 1012.9 |
| 20260903010648 | 72 | 330 | 2.6 | 7.0 | 0.00 | 0.00 | 0.00 | 72 | 1012.8 |
| 20260903005922 | 72 | 329 | 3.5 | 7.0 | 0.00 | 0.00 | 0.00 | 72 | 1012.9 |
| 20260903005422 | 72 | 279 | 1.7 | 7.8 | 0.00 | 0.00 | 0.00 | 72 | 1012.9 |
| 20260903004923 | 72 | 294 | 2.6 | 7.8 | 0.00 | 0.00 | 0.00 | 72 | 1012.7 |
| 20260903004423 | 72 | 330 | 2.6 | 7.8 | 0.00 | 0.00 | 0.00 | 71 | 1012.8 |
| 20260903003922 | 73 | 264 | 1.7 | 7.0 | 0.00 | 0.00 | 0.00 | 71 | 1012.9 |
| 20260903003422 | 73 | 286 | 5.2 | 7.8 | 0.00 | 0.00 | 0.00 | 71 | 1012.9 |
| 20260903002923 | 73 | 318 | 6.1 | 7.8 | 0.00 | 0.00 | 0.00 | 72 | 1012.8 |
| 20260903002423 | 73 | 304 | 3.5 | 7.0 | 0.00 | 0.00 | 0.00 | 70 | 1012.9 |
| 20260903001922 | 73 | 284 | 4.3 | 7.0 | 0.00 | 0.00 | 0.00 | 69 | 1012.9 |
| 20260903001646 | 73 | 224 | 4.3 | 7.8 | 0.00 | 0.00 | 0.00 | 69 | 1012.9 |
| 20260903001148 | 73 | 310 | 2.6 | 7.8 | 0.00 | 0.00 | 0.00 | 70 | 1012.9 |
| 20260903000424 | 73 | 320 | 3.5 | 7.0 | 0.00 | 0.00 | 0.00 | 69 | 1013.0 |
| 20260902235921 | 73 | 262 | 3.5 | 7.0 | 0.00 | 0.00 | 0.00 | 67 | 1012.9 |
| 20260902235422 | 73 | 331 | 4.3 | 8.7 | 0.00 | 0.00 | 0.00 | 67 | 1013.0 |
| 20260902234922 | 73 | 284 | 0.9 | 10.4 | 0.00 | 0.00 | 0.00 | 69 | 1013.0 |
| 20260902234423 | 73 | 269 | 1.7 | 10.4 | 0.00 | 0.00 | 0.00 | 70 | 1013.0 |
| 20260902233920 | 73 | 345 | 2.6 | 8.7 | 0.00 | 0.00 | 0.00 | 69 | 1013.1 |
| 20260902233421 | 73 | 297 | 4.3 | 8.7 | 0.00 | 0.00 | 0.00 | 69 | 1013.1 |
| 20260902232921 | 73 | 350 | 4.3 | 7.8 | 0.00 | 0.00 | 0.00 | 68 | 1013.2 |
| 20260902232422 | 73 | 344 | 5.2 | 7.8 | 0.00 | 0.00 | 0.00 | 69 | 1013.1 |
| 20260902231920 | 73 | 283 | 4.3 | 7.8 | 0.00 | 0.00 | 0.00 | 68 | 1013.2 |
| 20260902231420 | 73 | 287 | 4.3 | 7.8 | 0.00 | 0.00 | 0.00 | 67 | 1013.3 |
| 20260902231144 | 72 | 344 | 4.3 | 7.0 | 0.00 | 0.00 | 0.00 | 68 | 1013.3 |
| 20260902230641 | 72 | 303 | 2.6 | 11.3 | 0.00 | 0.00 | 0.00 | 67 | 1013.3 |
| 20260902225920 | 72 | 280 | 1.7 | 11.3 | 0.00 | 0.00 | 0.00 | 68 | 1013.3 |
| 20260902225639 | 73 | 10 | 5.2 | 11.3 | 0.00 | 0.00 | 0.00 | 69 | 1013.4 |
| 20260902224921 | 73 | 289 | 7.8 | 12.2 | 0.00 | 0.00 | 0.00 | 71 | 1013.4 |
| 20260902224421 | 73 | 330 | 7.8 | 12.2 | 0.00 | 0.00 | 0.00 | 72 | 1013.3 |
| 20260902223919 | 73 | 328 | 4.3 | 10.4 | 0.00 | 0.00 | 0.00 | 70 | 1013.4 |
| 20260902223419 | 73 | 321 | 3.5 | 10.4 | 0.00 | 0.00 | 0.00 | 71 | 1013.5 |
| 20260902223139 | 73 | 267 | 3.5 | 8.7 | 0.00 | 0.00 | 0.00 | 69 | 1013.5 |
| 20260902222645 | 73 | 304 | 5.2 | 12.2 | 0.00 | 0.00 | 0.00 | 69 | 1013.6 |
| 20260902221919 | 73 | 336 | 5.2 | 12.2 | 0.00 | 0.00 | 0.00 | 70 | 1013.6 |
| 20260902221418 | 73 | 341 | 5.2 | 10.4 | 0.00 | 0.00 | 0.00 | 70 | 1013.7 |
| 20260902220918 | 73 | 257 | 3.5 | 8.7 | 0.00 | 0.00 | 0.00 | 71 | 1013.7 |
| 20260902220420 | 73 | 352 | 4.3 | 11.3 | 0.00 | 0.00 | 0.00 | 70 | 1013.8 |
| 20260902215919 | 73 | 346 | 6.1 | 12.2 | 0.00 | 0.00 | 0.00 | 72 | 1013.8 |
| 20260902214419 | 73 | 4 | 2.6 | 8.7 | 0.00 | 0.00 | 0.00 | 70 | 1013.8 |
| 20260902213919 | 73 | 263 | 5.2 | 7.8 | 0.00 | 0.00 | 0.00 | 70 | 1013.7 |
| 20260902213418 | 73 | 261 | 1.7 | 8.7 | 0.00 | 0.00 | 0.00 | 71 | 1013.8 |
| 20260902212419 | 73 | 300 | 2.6 | 12.2 | 0.00 | 0.00 | 0.00 | 71 | 1013.7 |
| 20260902212135 | 73 | 341 | 4.3 | 13.0 | 0.00 | 0.00 | 0.00 | 71 | 1013.8 |
| 20260902211418 | 73 | 353 | 7.0 | 13.0 | 0.00 | 0.00 | 0.00 | 72 | 1013.8 |
| 20260902210918 | 73 | 332 | 7.8 | 13.9 | 0.00 | 0.00 | 0.00 | 72 | 1013.8 |
| 20260902210419 | 73 | 298 | 10.4 | 13.9 | 0.00 | 0.00 | 0.00 | 72 | 1013.9 |
| 20260902205918 | 73 | 327 | 7.0 | 10.4 | 0.00 | 0.00 | 0.00 | 71 | 1013.9 |
| 20260902205417 | 73 | 285 | 5.2 | 13.0 | 0.00 | 0.00 | 0.00 | 72 | 1014.0 |
| 20260902204917 | 73 | 0 | 6.1 | 13.0 | 0.00 | 0.00 | 0.00 | 71 | 1014.0 |
| 20260902204419 | 74 | 314 | 7.8 | 11.3 | 0.00 | 0.00 | 0.00 | 70 | 1014.0 |
| 20260902203918 | 74 | 327 | 4.3 | 11.3 | 0.00 | 0.00 | 0.00 | 72 | 1013.8 |
| 20260902203637 | 74 | 332 | 3.5 | 11.3 | 0.00 | 0.00 | 0.00 | 69 | 1014.0 |
| 20260902202917 | 74 | 269 | 3.5 | 11.3 | 0.00 | 0.00 | 0.00 | 70 | 1014.1 |
| 20260902202417 | 73 | 282 | 2.6 | 11.3 | 0.00 | 0.00 | 0.00 | 68 | 1014.1 |
| 20260902201917 | 74 | 274 | 4.3 | 10.4 | 0.00 | 0.00 | 0.00 | 69 | 1014.1 |
| 20260902201417 | 74 | 242 | 3.5 | 10.4 | 0.00 | 0.00 | 0.00 | 69 | 1014.2 |
| 20260902200916 | 74 | 296 | 6.1 | 11.3 | 0.00 | 0.00 | 0.00 | 71 | 1014.1 |
| 20260902200417 | 74 | 351 | 8.7 | 13.0 | 0.00 | 0.00 | 0.00 | 71 | 1014.2 |
| 20260902195916 | 74 | 253 | 2.6 | 13.0 | 0.00 | 0.00 | 0.00 | 70 | 1014.2 |
| 20260902195415 | 74 | 234 | 4.3 | 8.7 | 0.00 | 0.00 | 0.00 | 70 | 1014.3 |
| 20260902194915 | 74 | 275 | 4.3 | 8.7 | 0.00 | 0.00 | 0.00 | 68 | 1014.3 |
| 20260902194417 | 74 | 271 | 2.6 | 11.3 | 0.00 | 0.00 | 0.00 | 68 | 1014.3 |
| 20260902193640 | 74 | 256 | 1.7 | 8.7 | 0.00 | 0.00 | 0.00 | 69 | 1014.4 |
| 20260902192915 | 74 | 11 | 2.6 | 7.8 | 0.00 | 0.00 | 0.00 | 70 | 1014.4 |
| 20260902192416 | 74 | 349 | 6.1 | 10.4 | 0.00 | 0.00 | 0.00 | 70 | 1014.4 |
| 20260902191917 | 73 | 256 | 4.3 | 10.4 | 0.00 | 0.00 | 0.00 | 71 | 1014.4 |
| 20260902191415 | 73 | 347 | 4.3 | 8.7 | 0.00 | 0.00 | 0.00 | 71 | 1014.5 |
| 20260902190915 | 73 | 328 | 6.1 | 7.8 | 0.00 | 0.00 | 0.00 | 70 | 1014.7 |
| 20260902190414 | 73 | 357 | 5.2 | 10.4 | 0.00 | 0.00 | 0.00 | 71 | 1014.7 |
| 20260902185915 | 73 | 335 | 4.3 | 10.4 | 0.00 | 0.00 | 0.00 | 72 | 1014.7 |
| 20260902185414 | 73 | 324 | 7.0 | 10.4 | 0.00 | 0.00 | 0.00 | 72 | 1014.7 |
| 20260902184914 | 73 | 338 | 6.1 | 8.7 | 0.00 | 0.00 | 0.00 | 72 | 1014.8 |
| 20260902184414 | 73 | 301 | 2.6 | 12.2 | 0.00 | 0.00 | 0.00 | 73 | 1014.9 |
| 20260902183915 | 74 | 325 | 6.1 | 12.2 | 0.00 | 0.00 | 0.00 | 72 | 1014.9 |
| 20260902183633 | 74 | 333 | 3.5 | 8.7 | 0.00 | 0.00 | 0.00 | 73 | 1014.9 |
| 20260902182914 | 74 | 322 | 6.1 | 11.3 | 0.00 | 0.00 | 0.00 | 72 | 1015.0 |
| 20260902182413 | 74 | 302 | 3.5 | 11.3 | 0.00 | 0.00 | 0.00 | 71 | 1015.0 |
| 20260902181915 | 74 | 331 | 7.0 | 7.8 | 0.00 | 0.00 | 0.00 | 71 | 1015.0 |
| 20260902181414 | 74 | 342 | 3.5 | 7.8 | 0.00 | 0.00 | 0.00 | 72 | 1015.0 |
| 20260902180913 | 74 | 255 | 5.2 | 8.7 | 0.00 | 0.00 | 0.00 | 70 | 1015.0 |
| 20260902180631 | 74 | 304 | 3.5 | 8.7 | 0.00 | 0.00 | 0.00 | 71 | 1014.9 |
| 20260902180136 | 74 | 323 | 7.0 | 7.8 | 0.00 | 0.00 | 0.00 | 72 | 1014.9 |
| 20260902175414 | 74 | 337 | 3.5 | 8.7 | 0.00 | 0.00 | 0.00 | 71 | 1015.0 |
| 20260902174912 | 74 | 313 | 3.5 | 8.7 | 0.00 | 0.00 | 0.00 | 71 | 1014.9 |
| 20260902174413 | 74 | 326 | 4.3 | 7.8 | 0.00 | 0.00 | 0.00 | 71 | 1014.9 |
| 20260902173914 | 74 | 340 | 4.3 | 7.0 | 0.00 | 0.00 | 0.00 | 71 | 1014.9 |
| 20260902173633 | 74 | 286 | 2.6 | 7.0 | 0.00 | 0.00 | 0.00 | 70 | 1014.8 |
| 20260902172913 | 74 | 270 | 1.7 | 7.0 | 0.00 | 0.00 | 0.00 | 68 | 1014.9 |
| 20260902172413 | 74 | 356 | 4.3 | 7.0 | 0.00 | 0.00 | 0.00 | 70 | 1014.8 |
| 20260902171915 | 74 | 324 | 3.5 | 5.2 | 0.00 | 0.00 | 0.00 | 70 | 1014.8 |
| 20260902171641 | 74 | 269 | 2.6 | 5.2 | 0.00 | 0.00 | 0.00 | 71 | 1014.8 |
| 20260902170912 | 73 | 262 | 3.5 | 5.2 | 0.00 | 0.00 | 0.00 | 69 | 1014.7 |
| 20260902170635 | 73 | 264 | 1.7 | 5.2 | 0.00 | 0.00 | 0.00 | 69 | 1014.7 |
| 20260902165913 | 73 | 263 | 0.9 | 4.3 | 0.00 | 0.00 | 0.00 | 70 | 1014.7 |
| 20260902165413 | 72 | 270 | 1.7 | 4.3 | 0.00 | 0.00 | 0.00 | 72 | 1014.7 |
| 20260902164911 | 72 | 225 | 1.7 | 4.3 | 0.00 | 0.00 | 0.00 | 73 | 1014.6 |
| 20260902164412 | 71 | 241 | 1.7 | 2.6 | 0.00 | 0.00 | 0.00 | 73 | 1014.7 |
| 20260902163913 | 71 | 260 | 2.6 | 2.6 | 0.00 | 0.00 | 0.00 | 73 | 1014.6 |
| 20260902163413 | 71 | 35 | 0.9 | 2.6 | 0.00 | 0.00 | 0.00 | 76 | 1014.7 |
| 20260902163133 | 71 | 25 | 0.0 | 1.7 | 0.00 | 0.00 | 0.00 | 75 | 1014.8 |
| 20260902162411 | 70 | 12 | 0.9 | 4.3 | 0.00 | 0.00 | 0.00 | 76 | 1014.7 |
| 20260902161911 | 70 | 41 | 0.9 | 4.3 | 0.00 | 0.00 | 0.00 | 77 | 1014.8 |
| 20260902161413 | 70 | 289 | 0.0 | 1.7 | 0.00 | 0.00 | 0.00 | 77 | 1014.8 |
| 20260902160912 | 70 | 62 | 0.0 | 2.6 | 0.00 | 0.00 | 0.00 | 77 | 1014.8 |
| 20260902160411 | 69 | 270 | 0.9 | 2.6 | 0.00 | 0.00 | 0.00 | 77 | 1014.8 |
| 20260902155910 | 69 | 304 | 2.6 | 2.6 | 0.00 | 0.00 | 0.00 | 79 | 1014.8 |
| 20260902155634 | 69 | 352 | 0.9 | 2.6 | 0.00 | 0.00 | 0.00 | 79 | 1014.8 |
| 20260902154912 | 69 | 336 | 0.9 | 2.6 | 0.00 | 0.00 | 0.00 | 79 | 1014.8 |
| 20260902154410 | 68 | 350 | 0.0 | 1.7 | 0.00 | 0.00 | 0.00 | 78 | 1014.8 |
| 20260902154134 | 68 | 233 | 1.7 | 1.7 | 0.00 | 0.00 | 0.00 | 79 | 1014.7 |
| 20260902153411 | 68 | 256 | 0.0 | 1.7 | 0.00 | 0.00 | 0.00 | 81 | 1014.7 |
| 20260902152911 | 68 | 251 | 0.0 | 2.6 | 0.00 | 0.00 | 0.00 | 83 | 1014.7 |
| 20260902152409 | 68 | 352 | 0.0 | 4.3 | 0.00 | 0.00 | 0.00 | 84 | 1014.6 |
| 20260902151411 | 67 | 275 | 0.0 | 4.3 | 0.00 | 0.00 | 0.00 | 84 | 1014.7 |
| 20260902150911 | 67 | 295 | 1.7 | 1.7 | 0.00 | 0.00 | 0.00 | 83 | 1014.7 |
| 20260902150410 | 67 | 322 | 0.9 | 1.7 | 0.00 | 0.00 | 0.00 | 84 | 1014.7 |
| 20260902145909 | 66 | 267 | 0.0 | 1.7 | 0.00 | 0.00 | 0.00 | 85 | 1014.7 |
| 20260902145410 | 66 | 301 | 0.9 | 1.7 | 0.00 | 0.00 | 0.00 | 85 | 1014.7 |
| 20260902144910 | 65 | 261 | 0.0 | 1.7 | 0.00 | 0.00 | 0.00 | 86 | 1014.7 |
| 20260902144409 | 65 | 261 | 0.0 | 1.7 | 0.00 | 0.00 | 0.00 | 86 | 1014.6 |
| 20260902143629 | 65 | 9 | 0.9 | 4.3 | 0.00 | 0.00 | 0.00 | 88 | 1014.6 |
| 20260902142910 | 65 | 24 | 1.7 | 2.6 | 0.00 | 0.00 | 0.00 | 88 | 1014.7 |
| 20260902142409 | 65 | 296 | 0.0 | 0.0 | 0.00 | 0.00 | 0.00 | 88 | 1014.8 |
| 20260902142132 | 65 | 298 | 0.0 | 0.0 | 0.00 | 0.00 | 0.00 | 88 | 1014.7 |
| 20260902141410 | 64 | 263 | 0.0 | 0.0 | 0.00 | 0.00 | 0.00 | 87 | 1014.6 |
| 20260902140909 | 64 | 186 | 0.0 | 0.0 | 0.00 | 0.00 | 0.00 | 88 | 1014.6 |
| 20260902140408 | 64 | 245 | 0.0 | 0.9 | 0.00 | 0.00 | 0.00 | 89 | 1014.5 |
| 20260902135908 | 64 | 230 | 0.0 | 1.7 | 0.00 | 0.00 | 0.00 | 91 | 1014.5 |
| 20260902135409 | 64 | 223 | 0.0 | 2.6 | 0.00 | 0.00 | 0.00 | 91 | 1014.4 |
| 20260902134909 | 64 | 260 | 0.0 | 4.3 | 0.00 | 0.00 | 0.00 | 91 | 1014.4 |
| 20260902134408 | 64 | 341 | 2.6 | 4.3 | 0.00 | 0.00 | 0.00 | 91 | 1014.3 |
| 20260902133907 | 64 | 271 | 0.9 | 5.2 | 0.00 | 0.00 | 0.00 | 91 | 1014.2 |
| 20260902133407 | 64 | 294 | 1.7 | 5.2 | 0.00 | 0.00 | 0.00 | 90 | 1014.2 |
| 20260902132909 | 64 | 305 | 0.0 | 2.6 | 0.00 | 0.00 | 0.00 | 90 | 1014.1 |
| 20260902132626 | 64 | 15 | 1.7 | 2.6 | 0.00 | 0.00 | 0.00 | 90 | 1014.2 |
| 20260902131907 | 64 | 7 | 1.7 | 4.3 | 0.00 | 0.00 | 0.00 | 90 | 1014.1 |
| 20260902131635 | 64 | 4 | 0.9 | 4.3 | 0.00 | 0.00 | 0.00 | 91 | 1014.0 |
| 20260902130908 | 64 | 232 | 0.0 | 2.6 | 0.00 | 0.00 | 0.00 | 91 | 1014.0 |
| 20260902125907 | 64 | 338 | 2.6 | 2.6 | 0.00 | 0.00 | 0.00 | 91 | 1013.9 |
| 20260902125407 | 64 | 260 | 0.0 | 2.6 | 0.00 | 0.00 | 0.00 | 91 | 1013.8 |
| 20260902124908 | 64 | 307 | 1.7 | 2.6 | 0.00 | 0.00 | 0.00 | 91 | 1013.9 |
| 20260902124625 | 64 | 289 | 0.0 | 0.9 | 0.00 | 0.00 | 0.00 | 91 | 1013.8 |
| 20260902123906 | 64 | 262 | 0.0 | 4.3 | 0.00 | 0.00 | 0.00 | 91 | 1013.8 |
| 20260902123406 | 64 | 271 | 0.0 | 4.3 | 0.00 | 0.00 | 0.00 | 91 | 1013.8 |
| 20260902122907 | 64 | 349 | 0.0 | 4.3 | 0.00 | 0.00 | 0.00 | 91 | 1013.7 |
| 20260902122407 | 64 | 355 | 0.9 | 4.3 | 0.00 | 0.00 | 0.00 | 91 | 1013.6 |
| 20260902122126 | 64 | 297 | 0.0 | 2.6 | 0.00 | 0.00 | 0.00 | 91 | 1013.7 |
| 20260902121405 | 64 | 274 | 0.0 | 2.6 | 0.00 | 0.00 | 0.00 | 91 | 1013.7 |
| 20260902120907 | 64 | 303 | 0.9 | 4.3 | 0.00 | 0.00 | 0.00 | 91 | 1013.8 |
| 20260902120407 | 64 | 16 | 0.0 | 4.3 | 0.00 | 0.00 | 0.00 | 91 | 1013.8 |
| 20260902115906 | 64 | 325 | 2.6 | 2.6 | 0.00 | 0.00 | 0.00 | 91 | 1013.7 |
| 20260902115405 | 64 | 272 | 0.0 | 0.0 | 0.00 | 0.00 | 0.00 | 91 | 1013.7 |
| 20260902114906 | 64 | 305 | 0.0 | 0.0 | 0.00 | 0.00 | 0.00 | 91 | 1013.9 |
| 20260902114406 | 64 | 294 | 0.0 | 0.9 | 0.00 | 0.00 | 0.00 | 91 | 1013.9 |
| 20260902113905 | 64 | 321 | 0.0 | 0.9 | 0.00 | 0.00 | 0.00 | 91 | 1013.9 |
| 20260902113405 | 64 | 284 | 0.0 | 0.0 | 0.00 | 0.00 | 0.00 | 91 | 1013.8 |
| 20260902112906 | 64 | 252 | 0.0 | 0.0 | 0.00 | 0.00 | 0.00 | 91 | 1013.9 |
| 20260902112405 | 64 | 253 | 0.0 | 0.0 | 0.00 | 0.00 | 0.00 | 90 | 1013.8 |
| 20260902111905 | 64 | 239 | 0.0 | 0.0 | 0.00 | 0.00 | 0.00 | 91 | 1013.8 |